User: anonymous
Location: Unspecified
(42.0334°N, 93.6656°W)
Time: 03:40:55
(UTC-05:00)
Language:

Iridium 63 - Orbit

View from above orbital plane
View from above orbital plane
View from above satellite
View from above satellite

Ground track
Ground track

The orbit data is extracted from the following two-line orbital elements,

1 25286U 98021B   14209.39825777  .00000350  00000-0  11809-3 0  9043
2 25286 086.4021 305.0677 0002205 107.0963 296.5171 14.34217934853835
Epoch (UTC): 28 July 2014 09:33:29
Eccentricity: 0.0002205
inclination: 86.4021°
perigee height: 776 km
apogee height: 779 km
right ascension of ascending node: 305.0677°
argument of perigee: 107.0963°
revolutions per day: 14.34217934
mean anomaly at epoch: 296.5171°
orbit number at epoch: 85383

The dashed part of the orbit path shows where the satellite is in the earth's shadow,  

DLR